Temperature
3 4 3 3 3 3 2 3 3 4 5 5 6 5 5 6 5 5 4 4 4 4 4 4 4 4 4 4 4 4 5 5 5 5 5 5 5 5 5 5 5 5 5 5
2 3 3 3 3 3 3 3 3 3 4 5 5 5 5 5 4 4 4 4 4 3 3 4 4 4 4 4 4 4 4 4 4 4 4 4 4 5 5 5 4 4 4 4
2 3 3 3 2 2 2 2 3 3 3 4 4 4 4 4 4 3 3 4 3 3 3 3 3 4 3 3 3 3 3 4 4 4 4 4 4 4 4 4 4 4 4 3
1 2 2 3 3 3 2 2 2 2 2 3 3 3 3 3 3 3 3 3 3 3 3 3 3 3 3 3 3 3 3 3 3 3 3 3 3 3 3 3 3 3 3 3
1 2 3 3 2 2 1 1 1 1 2 2 2 3 3 3 2 2 2 2 2 2 2 3 3 3 3 3 3 3 3 3 3 3 3 3 3 3 3 3 3 2 2 2
1 2 2 3 1 1 1 1 1 1 1 1 1 1 1 2 2 2 2 2 2 2 2 2 2 2 2 2 2 2 2 2 2 2 2 2 2 2 2 2 2 2 2 1
0 1 1 1 0 1 1 1 1 1 1 0 -0 0 1 1 1 1 1 1 1 1 2 2 2 2 2 2 2 2 2 2 2 2 2 2 2 2 2 1 1 1 1 1
-0 0 1 -0 -0 -0 0 1 1 0 0 -0 -0 0 0 0 1 1 1 1 1 1 1 1 1 1 1 1 1 1 1 1 1 1 1 1 1 1 1 1 1 0 0 0
-0 0 0 0 0 1 1 0 0 -0 -0 -0 -0 -0 -1 -1 -0 -0 -0 -0 -0 -0 -0 -0 0 0 0 0 0 1 1 1 1 1 1 1 1 0 0 0 0 -0 -0 -0
-1 -1 0 1 1 0 0 -0 -1 -1 -1 -1 -1 -1 -1 -1 -1 -1 -1 -1 -1 -1 -1 -1 -1 -0 -1 -1 -0 0 0 0 0 0 0 0 0 -0 -0 -0 -0 -0 -1 -1
-2 -1 -0 0 -0 -0 -0 -1 -1 -1 -1 -1 -1 -1 -1 -1 -2 -2 -2 -2 -1 -1 -1 -1 -1 -1 -1 -1 -1 -1 -0 -0 -0 -0 -0 -1 -1 -1 -1 -1 -1 -1 -1 -1
-1 -1 -1 -1 -1 -1 -1 -1 -1 -1 -1 -1 -2 -2 -2 -2 -2 -2 -2 -2 -2 -2 -2 -2 -2 -2 -1 -1 -1 -1 -1 -1 -1 -1 -1 -1 -1 -1 -1 -1 -1 -1 -2 -2
-1 -1 -1 -1 -1 -1 -2 -2 -2 -2 -2 -2 -2 -2 -2 -2 -3 -3 -3 -2 -2 -2 -2 -2 -2 -2 -2 -2 -2 -1 -1 -1 -2 -2 -2 -2 -2 -2 -2 -2 -2 -2 -2 -2
-2 -2 -2 -2 -2 -2 -2 -2 -2 -2 -3 -3 -3 -3 -3 -3 -3 -3 -3 -3 -3 -3 -3 -3 -2 -2 -2 -2 -2 -2 -2 -2 -2 -2 -2 -2 -2 -2 -2 -2 -2 -3 -3 -3
-2 -2 -2 -2 -3 -3 -3 -3 -3 -3 -3 -3 -3 -3 -3 -4 -4 -4 -3 -3 -3 -3 -3 -3 -3 -3 -3 -3 -3 -2 -3 -3 -3 -3 -3 -3 -3 -3 -3 -3 -3 -3 -3 -3
-3 -3 -3 -3 -3 -3 -3 -3 -4 -3 -4 -4 -4 -4 -4 -4 -4 -4 -4 -4 -4 -4 -4 -4 -3 -3 -3 -3 -3 -3 -3 -3 -3 -3 -4 -4 -4 -4 -4 -4 -4 -4 -4 -4
-3 -3 -3 -3 -3 -4 -4 -4 -4 -4 -4 -4 -4 -4 -4 -4 -4 -4 -4 -4 -4 -4 -4 -4 -4 -4 -4 -4 -4 -4 -4 -4 -4 -4 -4 -4 -4 -4 -4 -4 -4 -4 -4 -4
-3 -3 -3 -3 -3 -4 -4 -4 -4 -4 -4 -4 -5 -5 -5 -5 -5 -5 -5 -5 -5 -5 -4 -4 -4 -4 -4 -4 -4 -4 -4 -4 -4 -4 -4 -4 -5 -4 -5 -5 -5 -5 -5 -5
-3 -3 -3 -4 -4 -4 -4 -4 -4 -4 -4 -5 -5 -5 -5 -5 -5 -5 -5 -5 -5 -5 -5 -5 -5 -5 -5 -5 -5 -4 -4 -4 -4 -4 -5 -5 -5 -5 -5 -5 -5 -5 -5 -5
-4 -4 -4 -4 -4 -4 -4 -4 -4 -4 -4 -5 -5 -5 -5 -5 -5 -5 -5 -5 -5 -5 -5 -5 -5 -5 -5 -5 -5 -5 -5 -5 -5 -5 -5 -5 -5 -5 -5 -5 -5 -5 -5 -5
-4 -4 -4 -4 -4 -4 -4 -4 -5 -5 -5 -5 -5 -5 -5 -5 -5 -5 -6 -6 -6 -6 -6 -6 -6 -6 -6 -6 -5 -5 -5 -5 -5 -6 -6 -6 -6 -6 -6 -6 -6 -6 -6 -6
-4 -4 -4 -5 -5 -5 -5 -5 -5 -5 -5 -5 -5 -5 -5 -5 -5 -6 -6 -6 -6 -6 -6 -6 -6 -6 -6 -6 -6 -6 -6 -6 -6 -6 -6 -6 -6 -6 -6 -6 -6 -6 -6 -6
-5 -5 -5 -5 -5 -5 -5 -5 -5 -5 -5 -5 -5 -6 -6 -6 -6 -6 -6 -6 -6 -6 -6 -6 -6 -6 -6 -6 -6 -6 -6 -6 -6 -6 -6 -6 -6 -6 -6 -6 -6 -6 -6 -6
-5 -5 -5 -5 -5 -5 -5 -5 -6 -6 -6 -6 -6 -6 -6 -6 -6 -6 -6 -6 -7 -6 -6 -6 -7 -6 -6 -6 -6 -6 -6 -6 -6 -6 -6 -6 -7 -6 -6 -6 -6 -6 -6 -6
-6 -6 -6 -6 -6 -6 -6 -6 -6 -6 -6 -6 -6 -6 -6 -6 -6 -6 -7 -7 -7 -7 -7 -7 -7 -7 -7 -7 -7 -7 -7 -6 -7 -7 -7 -7 -7 -7 -7 -7 -7 -7 -6 -6
-6 -6 -6 -6 -6 -7 -7 -7 -7 -7 -7 -7 -7 -7 -7 -7 -7 -7 -7 -7 -7 -7 -7 -7 -7 -7 -7 -7 -7 -7 -7 -7 -7 -7 -7 -7 -7 -7 -7 -7 -7 -7 -7 -7
-7 -7 -7 -7 -7 -7 -7 -7 -7 -7 -7 -7 -7 -7 -7 -7 -7 -7 -7 -7 -7 -7 -7 -7 -7 -7 -7 -7 -7 -7 -7 -7 -7 -7 -7 -7 -7 -7 -7 -7 -7 -7 -7 -7
Wind_Speed
7 7 5 6 7 7 8 8 7 8 9 11 7 5 4 3 3 3 3 3 2 2 3 2 2 1 0 0 1 1 2 2 3 3 3 4 4 4 4 4 4 4 4 3
6 6 6 8 10 9 10 9 10 11 12 9 8 5 5 5 4 3 3 2 1 2 2 2 2 1 1 1 1 1 2 2 2 3 3 4 4 4 4 3 4 4 4 3
4 3 5 7 8 9 6 6 7 10 9 7 7 7 6 6 5 4 4 3 3 2 2 2 2 1 2 2 1 1 1 1 2 3 3 4 4 4 4 4 3 4 4 4
3 3 5 5 1 2 5 5 5 5 6 7 6 6 5 4 4 5 5 5 4 3 3 2 2 2 2 1 1 1 1 1 1 2 3 3 4 3 3 3 3 3 3 3
2 4 6 3 0 0 2 4 3 5 6 7 7 5 4 4 5 4 4 5 4 4 3 2 1 1 1 1 1 1 1 1 1 2 3 3 3 3 3 3 3 3 3 3
3 4 5 3 1 2 0 3 3 3 4 5 6 3 4 6 6 6 5 3 4 3 2 2 2 1 1 1 1 1 1 1 1 2 3 3 4 3 3 3 3 3 2 2
5 5 5 2 1 1 1 4 4 4 4 4 3 3 5 7 6 5 4 4 4 3 3 2 2 2 2 1 1 1 1 0 1 2 2 3 3 3 3 3 3 2 2 1
4 5 6 0 1 2 3 3 3 4 4 5 5 5 6 6 6 5 5 4 4 4 4 3 3 2 2 2 2 1 1 1 1 1 2 2 3 3 3 4 3 3 2 1
5 6 2 2 2 2 2 3 4 4 5 5 5 4 5 5 5 4 5 4 4 3 4 4 3 3 2 3 2 2 1 1 1 1 2 2 3 3 3 3 3 2 2 2
5 6 4 4 3 3 3 3 4 4 5 5 4 5 5 5 4 4 4 4 3 3 3 4 4 4 3 3 2 1 1 1 1 2 1 1 1 2 3 3 3 2 2 2
6 6 5 3 2 3 4 4 5 5 4 4 4 5 5 4 4 4 3 4 3 3 3 4 4 3 3 3 1 1 0 1 1 1 1 1 1 1 1 2 3 3 3 3
6 4 3 4 3 3 4 5 5 5 5 4 4 4 4 4 3 3 3 3 3 3 3 4 4 3 3 3 1 0 0 0 1 1 1 1 1 1 1 0 1 1 2 2
4 3 3 4 4 3 4 5 4 4 4 4 4 3 3 3 3 3 3 3 3 3 3 3 3 4 3 3 2 1 0 0 1 1 1 1 1 1 1 1 1 1 1 1
2 2 3 3 3 4 4 4 3 3 3 3 3 3 3 3 3 4 4 3 3 3 3 2 3 3 3 3 2 1 1 1 1 1 1 1 1 1 1 1 1 1 1 1
2 3 4 4 4 4 3 3 3 3 3 3 3 3 2 3 4 4 4 3 3 3 3 2 2 3 3 2 2 2 1 1 1 0 0 0 0 0 1 1 1 1 1 1
3 4 4 4 5 4 3 3 4 4 4 4 3 3 3 3 3 3 3 3 2 3 3 3 3 3 2 1 1 1 1 0 0 0 1 1 1 1 1 1 1 1 1 1
2 4 4 5 5 5 4 4 4 5 4 4 4 3 3 3 3 3 3 3 2 3 3 3 3 3 2 1 1 0 0 0 0 0 1 1 1 1 1 1 2 2 1 2
4 5 4 5 5 5 5 4 4 4 4 4 3 2 2 2 3 3 3 3 3 3 3 3 3 2 1 1 1 1 0 0 0 1 1 1 1 1 1 1 2 2 1 1
4 4 4 4 3 3 3 4 4 4 4 3 2 3 3 3 3 3 3 2 3 4 4 3 3 2 2 1 1 0 0 0 0 0 0 1 0 1 1 1 1 2 2 1
3 3 4 3 2 2 3 4 4 3 2 2 2 2 2 3 3 2 2 2 3 3 3 3 2 1 1 1 1 0 1 1 1 0 0 0 1 1 1 1 1 2 2 2
3 4 3 3 3 3 3 3 2 3 2 2 2 3 3 3 3 2 2 3 3 2 2 3 2 1 1 1 1 0 1 1 1 1 1 1 1 1 1 1 1 1 2 2
3 3 3 3 2 3 2 2 2 2 2 2 2 2 2 3 2 2 2 3 3 4 2 1 1 1 1 1 0 1 1 1 1 1 1 1 1 1 1 1 1 1 1 2
3 3 3 3 2 2 2 1 2 2 2 2 2 3 3 3 2 2 3 3 2 3 2 1 2 2 2 1 0 1 1 1 1 1 1 1 1 1 1 1 1 1 2 2
3 3 3 2 1 1 2 3 2 2 2 3 3 3 2 2 2 2 2 3 4 3 2 2 2 2 1 1 0 0 1 1 1 1 1 1 1 1 1 2 2 2 2 2
3 3 2 2 2 2 3 3 2 2 2 2 2 2 2 2 2 2 2 2 3 3 2 2 2 1 1 1 0 0 1 1 1 1 1 1 1 1 1 1 2 2 2 2
3 3 3 3 3 2 2 2 2 2 1 2 2 1 1 1 1 2 2 2 2 2 2 1 1 0 1 1 1 1 1 1 1 1 1 1 1 1 1 2 2 2 2 2
2 2 2 2 2 2 2 2 2 2 2 2 2 2 1 1 1 1 1 1 1 1 1 1 1 1 1 1 1 1 1 1 1 1 1 1 1 1 2 2 2 2 2 2
Wind_Direction
276 281 273 259 257 238 230 236 243 258 264 276 304 315 318 323 339 346 355 8 18 355 340 337 357 359 1 276 165 172 169 174 179 174 165 161 166 164 161 164 169 168 166 168
281 273 271 264 254 238 238 244 251 268 273 283 310 323 323 331 340 336 328 330 335 328 327 328 336 335 321 286 243 182 181 190 175 167 163 164 163 152 148 153 158 155 163 165
275 298 301 265 242 222 223 228 232 247 262 308 321 321 322 326 329 324 330 330 327 313 298 297 297 293 281 275 263 222 198 191 174 165 164 167 161 148 153 156 153 157 168 170
279 310 254 250 13 208 228 254 246 261 291 307 307 313 320 330 339 331 331 331 327 323 313 301 298 305 294 277 252 233 225 209 182 160 154 151 150 151 157 158 161 166 172 175
248 266 272 270 281 151 214 275 282 273 300 321 329 323 327 5 358 332 321 316 316 317 312 309 317 312 310 328 312 244 236 229 191 161 155 157 158 161 160 158 157 163 168 170
240 256 257 278 346 346 106 272 313 314 316 331 345 332 315 351 351 341 336 334 331 331 341 348 349 357 17 352 329 268 266 244 189 166 165 168 164 157 153 149 149 146 149 168
236 250 266 281 307 16 170 274 331 344 332 332 313 282 309 334 341 346 351 353 357 352 352 347 353 11 8 351 322 311 358 341 163 152 152 152 146 145 142 138 132 129 134 160
209 229 256 198 98 174 247 317 331 327 324 317 309 317 332 338 340 349 352 354 4 1 351 349 356 7 352 333 335 23 62 70 108 124 136 141 143 141 138 137 137 141 146 154
211 225 256 197 236 277 322 314 313 314 317 314 309 316 327 332 334 340 345 342 351 358 346 343 353 7 347 331 359 31 67 86 95 99 116 137 142 143 139 141 146 159 164 169
262 262 261 256 274 317 329 315 318 320 317 314 308 311 319 322 325 334 341 339 343 349 345 339 347 354 343 339 2 34 65 102 108 104 96 100 134 151 160 167 166 175 181 177
261 274 291 254 270 305 314 317 319 321 314 308 308 311 314 316 321 327 331 330 334 334 331 328 334 335 335 337 356 3 29 114 118 111 116 109 103 160 180 192 187 184 188 186
247 254 254 280 309 313 305 300 299 303 307 310 308 305 313 317 321 321 323 328 331 328 322 319 323 321 323 334 349 30 28 93 126 112 111 121 130 71 33 76 209 197 194 190
262 304 287 282 298 306 296 300 305 303 299 307 316 314 316 317 320 321 320 324 320 310 309 314 318 320 328 343 351 3 258 146 122 118 133 147 149 144 110 51 70 100 148 184
279 311 295 295 303 316 311 304 301 304 312 318 321 325 323 323 324 323 317 313 314 314 312 314 317 321 334 351 356 6 55 110 116 145 148 153 168 171 160 145 121 65 112 167
272 276 275 293 300 299 303 310 314 310 311 316 324 321 317 311 308 308 310 316 323 319 317 320 321 322 338 352 357 12 28 95 101 116 135 150 134 132 136 138 142 128 100 132
277 283 281 279 281 288 296 302 297 293 298 300 306 305 301 297 298 303 310 316 316 313 313 315 314 317 329 339 349 14 3 334 346 149 151 153 167 169 168 170 175 176 178 178
266 277 276 278 281 284 280 275 274 281 286 287 288 295 304 308 308 308 315 319 311 301 305 307 308 314 325 329 325 279 265 268 328 98 171 189 192 198 197 198 206 204 202 204
248 259 265 268 270 274 278 276 278 281 280 281 285 292 294 292 290 297 307 320 323 319 315 309 310 320 328 329 322 317 275 233 206 189 194 202 191 183 182 190 188 177 150 137
270 273 276 278 273 264 270 273 275 276 281 280 272 273 274 281 290 301 309 316 312 311 316 317 325 343 334 316 325 304 178 140 93 84 118 177 163 150 165 185 186 168 151 139
283 285 281 282 281 270 273 276 276 273 273 269 272 283 289 293 299 306 310 298 290 289 297 315 325 327 313 296 304 187 170 161 154 150 151 170 173 167 185 191 173 155 151 153
285 288 288 283 280 278 276 277 272 270 273 262 252 262 276 290 297 293 300 302 305 304 304 310 325 312 294 286 315 151 159 167 172 176 189 193 186 186 181 173 157 149 155 150
276 279 281 282 283 290 292 286 272 270 275 275 271 272 286 300 306 300 283 279 295 311 323 312 306 296 296 311 104 148 170 181 180 181 186 195 197 186 168 156 152 149 147 141
278 278 282 284 278 283 301 294 274 263 261 264 264 266 268 276 276 278 297 306 309 314 327 309 296 299 306 4 109 175 187 195 185 185 190 187 177 170 164 155 149 144 139 135
276 280 282 285 281 278 284 285 276 270 265 270 266 256 254 275 291 283 286 306 318 313 318 306 299 299 313 57 114 156 168 182 176 165 159 153 150 147 151 149 143 138 134 129
271 273 276 269 258 259 265 277 282 276 270 275 280 274 257 251 263 287 301 300 306 315 322 310 309 311 33 77 111 126 129 148 148 138 137 139 144 145 144 136 133 132 131 133
265 266 261 251 253 259 259 257 267 270 271 288 301 302 300 302 296 299 303 301 303 320 333 331 331 23 86 92 97 101 101 110 106 106 118 126 133 139 135 123 118 122 124 130
267 268 266 274 274 262 259 258 261 265 263 262 281 291 299 305 310 311 313 317 320 331 343 359 56 97 105 100 93 93 96 95 97 103 111 119 122 118 118 118 119 123 130 138
Height
1463 1459 1459 1459 1458 1459 1460 1457 1457 1448 1444 1436 1435 1435 1434 1432 1431 1430 1429 1428 1428 1428 1428 1428 1428 1429 1430 1430 1430 1431 1432 1433 1434 1436 1438 1440 1442 1444 1446 1447 1449 1451 1453 1454
1463 1458 1457 1456 1453 1453 1453 1452 1451 1447 1442 1436 1435 1434 1433 1431 1430 1429 1428 1427 1427 1427 1427 1427 1426 1427 1427 1428 1428 1429 1429 1430 1431 1433 1435 1436 1438 1439 1441 1443 1445 1447 1449 1451
1462 1457 1455 1453 1448 1448 1448 1446 1446 1445 1441 1436 1435 1434 1432 1431 1430 1428 1427 1426 1426 1425 1425 1425 1424 1424 1425 1425 1425 1425 1426 1427 1428 1430 1431 1433 1434 1435 1437 1440 1442 1444 1446 1447
1465 1462 1459 1445 1442 1441 1443 1443 1442 1441 1438 1437 1435 1433 1431 1430 1429 1427 1426 1425 1424 1424 1423 1423 1422 1422 1422 1421 1421 1422 1423 1424 1425 1426 1428 1429 1431 1432 1435 1437 1439 1440 1442 1444
1465 1459 1449 1442 1442 1443 1444 1443 1440 1440 1438 1436 1434 1431 1429 1428 1428 1426 1425 1424 1423 1422 1421 1420 1420 1419 1419 1418 1418 1419 1420 1421 1422 1423 1424 1426 1428 1430 1432 1434 1436 1437 1439 1441
1463 1460 1452 1443 1443 1442 1444 1444 1439 1438 1437 1436 1434 1434 1430 1428 1426 1425 1423 1422 1421 1420 1419 1418 1418 1417 1416 1415 1416 1416 1417 1418 1419 1421 1422 1424 1425 1427 1429 1431 1432 1434 1436 1437
1463 1458 1450 1445 1443 1443 1448 1444 1439 1437 1437 1436 1435 1434 1431 1427 1425 1423 1422 1421 1419 1418 1417 1416 1416 1415 1414 1414 1414 1414 1415 1416 1417 1418 1420 1422 1423 1425 1426 1428 1429 1431 1432 1434
1461 1459 1453 1444 1443 1445 1444 1440 1438 1437 1436 1435 1433 1431 1428 1426 1423 1421 1420 1419 1418 1417 1416 1415 1415 1414 1413 1412 1412 1413 1413 1414 1415 1416 1418 1419 1421 1422 1424 1425 1426 1428 1429 1430
1454 1451 1444 1442 1441 1441 1440 1439 1437 1436 1434 1433 1431 1429 1427 1425 1423 1421 1420 1418 1417 1416 1415 1414 1413 1412 1411 1411 1411 1411 1412 1412 1413 1414 1415 1417 1418 1420 1421 1423 1424 1425 1426 1427
1449 1442 1440 1440 1439 1438 1438 1437 1436 1434 1433 1431 1429 1427 1425 1423 1421 1420 1419 1417 1416 1415 1413 1413 1412 1411 1411 1410 1410 1410 1410 1410 1411 1412 1413 1415 1416 1418 1419 1420 1422 1423 1424 1424
1446 1441 1439 1437 1437 1436 1435 1435 1433 1432 1431 1429 1427 1425 1424 1422 1420 1419 1417 1416 1415 1413 1412 1411 1411 1410 1410 1409 1408 1408 1408 1408 1409 1410 1411 1413 1414 1416 1417 1418 1419 1421 1422 1422
1441 1437 1438 1436 1435 1434 1433 1432 1431 1430 1428 1427 1425 1423 1422 1420 1419 1417 1416 1414 1413 1412 1411 1410 1409 1408 1408 1407 1407 1406 1406 1407 1407 1408 1409 1411 1412 1413 1415 1416 1417 1418 1419 1420
1436 1435 1434 1433 1433 1432 1431 1430 1429 1427 1426 1424 1422 1421 1419 1418 1417 1415 1414 1413 1412 1411 1410 1409 1408 1407 1406 1406 1405 1405 1405 1405 1406 1407 1408 1409 1410 1411 1411 1413 1415 1416 1417 1417
1434 1433 1432 1431 1431 1430 1429 1427 1426 1425 1423 1422 1420 1419 1418 1416 1415 1414 1412 1411 1410 1409 1408 1407 1406 1405 1405 1404 1404 1403 1403 1404 1404 1405 1406 1407 1408 1409 1410 1410 1411 1413 1414 1415
1431 1431 1430 1429 1428 1427 1426 1425 1424 1422 1421 1420 1418 1417 1416 1415 1413 1412 1411 1410 1408 1407 1406 1405 1404 1403 1403 1403 1402 1402 1402 1402 1403 1404 1405 1406 1406 1407 1408 1409 1410 1411 1412 1413
1428 1427 1427 1426 1425 1424 1423 1422 1421 1420 1419 1418 1416 1415 1414 1413 1412 1410 1409 1408 1407 1405 1404 1403 1402 1402 1401 1401 1401 1401 1401 1402 1402 1403 1403 1404 1405 1405 1406 1407 1408 1409 1410 1411
1425 1424 1423 1422 1422 1421 1420 1419 1418 1417 1417 1415 1414 1413 1412 1411 1410 1408 1407 1406 1405 1404 1403 1402 1401 1400 1400 1400 1400 1400 1400 1401 1401 1402 1402 1403 1403 1404 1404 1405 1406 1407 1408 1409
1422 1421 1420 1419 1418 1418 1417 1416 1416 1415 1414 1413 1412 1411 1409 1408 1407 1406 1406 1404 1403 1402 1401 1401 1400 1399 1399 1399 1399 1399 1399 1399 1400 1400 1401 1401 1402 1402 1403 1404 1404 1405 1406 1407
1418 1418 1417 1416 1415 1414 1414 1413 1412 1412 1411 1410 1409 1408 1407 1407 1406 1405 1404 1402 1401 1400 1400 1399 1399 1398 1398 1398 1398 1398 1398 1398 1398 1399 1399 1400 1400 1401 1401 1402 1403 1403 1404 1405
1415 1415 1414 1413 1412 1412 1411 1410 1409 1409 1408 1407 1406 1406 1405 1404 1404 1403 1402 1401 1400 1399 1398 1397 1397 1396 1396 1396 1397 1397 1397 1397 1397 1397 1398 1398 1399 1399 1400 1401 1401 1402 1403 1403
1413 1412 1411 1410 1410 1409 1408 1407 1407 1406 1405 1405 1404 1403 1403 1402 1402 1401 1399 1399 1398 1398 1397 1396 1395 1395 1395 1395 1395 1395 1395 1396 1396 1396 1397 1397 1398 1398 1399 1399 1400 1401 1401 1402
1411 1410 1409 1408 1407 1406 1406 1405 1404 1403 1403 1402 1402 1402 1401 1400 1399 1399 1398 1398 1397 1396 1395 1394 1394 1394 1394 1394 1394 1394 1394 1395 1395 1395 1396 1396 1397 1397 1397 1398 1399 1399 1400 1401
1409 1408 1407 1406 1405 1404 1403 1403 1402 1401 1401 1400 1400 1399 1399 1398 1398 1397 1396 1396 1395 1395 1394 1393 1393 1393 1393 1393 1393 1393 1393 1393 1394 1394 1395 1395 1396 1396 1396 1397 1398 1398 1399 1400
1406 1405 1404 1404 1403 1402 1401 1400 1400 1399 1399 1399 1398 1398 1397 1396 1396 1395 1395 1394 1394 1393 1393 1392 1392 1392 1392 1392 1392 1392 1392 1393 1393 1393 1394 1394 1395 1395 1396 1396 1397 1398 1399 1399
1403 1402 1401 1401 1400 1399 1399 1398 1397 1397 1397 1396 1396 1396 1395 1395 1394 1393 1393 1392 1392 1392 1391 1391 1391 1391 1391 1391 1391 1391 1392 1392 1392 1393 1393 1394 1394 1395 1395 1396 1397 1397 1398 1399
1400 1399 1398 1398 1397 1397 1396 1395 1395 1395 1394 1394 1394 1393 1393 1393 1392 1392 1391 1391 1391 1390 1390 1390 1390 1390 1390 1390 1390 1391 1391 1391 1392 1392 1393 1393 1394 1394 1395 1396 1396 1397 1398 1399
1397 1396 1396 1395 1395 1394 1394 1393 1392 1392 1392 1392 1391 1391 1391 1391 1390 1390 1389 1389 1389 1389 1389 1389 1389 1389 1389 1390 1390 1390 1391 1391 1392 1392 1393 1393 1394 1395 1395 1396 1397 1397 1398 1399